Tracking 35280 objects as of 7-Sep-2026
HD Live streaming from Space Station
objects crossing your sky now

STARLINK-1198


STARLINK-1198 is no longer on orbit
STARLINK-1198 is classified as:


NORAD ID: 45200
Int'l Code: 2020-012Y
Launch date: February 17, 2020
Source: United States (US)
Launch site: AIR FORCE EASTERN TEST RANGE (AFETR)
Decay date: 2021-07-31
Your satellite tracking list
Your tracking list is empty




NASA's NSSDC Master Catalog

Two Line Element Set (TLE):
1 45200U 20012Y   21211.88260907  .19365719  12377-4  21821-2 0  9994
2 45200  53.0232 345.3826 0012720 305.9591 197.4062 16.35947635 81022
Source of the keplerian elements: AFSPC